Location: Lake Lucerne
(45.5315°N, 88.8489°W)
Time: 11:24:16
(UTC-06:00)

ISS - Visible Passes

Search period start: 17 January 2019 00:00
Search period end: 27 January 2019 00:00
Orbit: 404 x 407 km, 51.6° (Epoch: 18 January)

Date Brightness Start Highest point End Pass type
(mag) Time Alt. Az. Time Alt. Az. Time Alt. Az.
21 Jan -0.7 19:27:41 10° SW 19:27:57 12° SW 19:27:57 12° SW visible
22 Jan -2.6 18:36:06 10° SSW 18:38:30 30° SSE 18:38:30 30° SSE visible
23 Jan -2.0 17:44:55 10° S 17:47:19 19° SE 17:48:58 14° E visible
23 Jan -1.4 19:20:15 10° WSW 19:21:40 24° WSW 19:21:40 24° WSW visible
24 Jan -3.9 18:28:18 10° SW 18:31:34 71° SSE 18:32:03 58° E visible
25 Jan -3.1 17:36:35 10° SW 17:39:41 40° SE 17:42:22 13° ENE visible
25 Jan -1.9 19:13:02 10° W 19:15:03 29° WNW 19:15:03 29° WNW visible
26 Jan -3.5 18:20:53 10° WSW 18:24:08 60° NNW 18:25:17 35° NE visible
